Regional Weather Roundup
Issued by NWS Albany, NY

Current Version | Previous Version | Text Only | Print | Product List | Glossary On
Versions: 1 2 3 4 5 6 7 8 9 10 11 12 13 14 15 16 17 18 19 20 21 22 23 24 25 26 27 28
000
ASUS41 KALY 251310
RWRALY

NEW YORK STATE HOURLY WEATHER ROUNDUP
NATIONAL WEATHER SERVICE ALBANY NY
900 AM EDT SAT OCT 25 2014

NOTE: "FAIR" INDICATES FEW OR NO CLOUDS BELOW 12,000 FEET WITH NO
SIGNIFICANT WEATHER AND/OR NO OBSTRUCTIONS TO VISIBILITY.

NYZ032-033-038>043-046>054-057>066-NYZ062>081-251400-
EAST


CITY           SKY/WX    TMP DP  RH WIND       PRES   REMARKS
ALBANY         MOSUNNY   49  42  77 SW5       29.83F
GLENS FALLS    FOG       42  41  96 CALM      29.81S VSB 1/4
POUGHKEEPSIE   SUNNY     41  38  89 CALM      29.85F
NEWBURGH       SUNNY     46  39  76 SW12      29.85F
MONTGOMERY     SUNNY     49  37  63 S7        29.84F
WHITE PLAINS   SUNNY     50  39  66 NW12      29.83F
ISLIP          MOSUNNY   52  43  71 W8        29.83S
NEW YORK CITY  MOSUNNY   54  37  52 W13       29.85F
CENTRAL PARK   SUNNY     52  36  54 CALM      29.89S
$$

NYZ005>009-017-018-044>046-055-056-251400-
CENTRAL


CITY           SKY/WX    TMP DP  RH WIND       PRES   REMARKS
FULTON         CLOUDY    50  44  80 S7        29.82S
SYRACUSE       CLOUDY    52  45  77 S3        29.83S
ROME           CLOUDY    45  43  93 CALM      29.85S
ELMIRA         CLOUDY    45  39  79 SW5       29.87S
BINGHAMTON     CLOUDY    44  36  73 SW8       29.85S
MONTICELLO     SUNNY     43  36  75 MISG      29.87S
$$

NYZ026>034-041>043-251400-
NORTH


CITY           SKY/WX    TMP DP  RH WIND       PRES   REMARKS
WATERTOWN      CLOUDY    50  43  77 S7        29.78F
FORT DRUM      NOT AVBL
MASSENA        CLOUDY    44  40  85 SW8       29.77F
SARANAC LAKE   CLOUDY    39  38  96 SW7       29.76S FOG     WCI  34
PLATTSBURGH    SUNNY     49  41  74 CALM      29.77S
$$

NYZ001>004-010>016-019>021-251400-
WEST


CITY           SKY/WX    TMP DP  RH WIND       PRES   REMARKS
NIAGARA FALLS  PTSUNNY   55  51  86 SW12      29.80F
BUFFALO        PTSUNNY   55  48  77 SW13      29.81F
DUNKIRK        PTSUNNY   54  45  71 S13G22    29.82F
JAMESTOWN      CLOUDY    48  43  81 S7        29.87F
WELLSVILLE     CLOUDY    49  40  71 W12       29.87F
ROCHESTER      PTSUNNY   51  46  83 SW7       29.81F
PENN YAN       CLOUDY    52  43  71 SW9       29.85R
$$

             KEY
       WCI = WIND CHILL INDEX
       VSB = VISIBILITY
       HX  = HEAT INDEX
$$



USA.gov is the U.S. government's official web portal to all federal, state and local government web resources and services.